TimeCST,TemperatureF,Dew PointF,Humidity,Sea Level PressureIn,VisibilityMPH,Wind Direction,Wind SpeedMPH,Gust SpeedMPH,PrecipitationIn,Events,Conditions,WindDirDegrees,DateUTC
12:15 AM,58.3,58.5,100,29.87,10.0,South,13.8,-,N/A,,Clear,190,2013-01-28 06:15:00
12:35 AM,58.5,58.5,100,29.87,10.0,South,13.8,21.9,N/A,,Clear,190,2013-01-28 06:35:00
12:55 AM,58.3,58.5,100,29.87,10.0,SSW,16.1,19.6,N/A,,Clear,200,2013-01-28 06:55:00
1:15 AM,58.8,58.8,100,29.86,10.0,SSW,17.3,20.7,N/A,,Clear,200,2013-01-28 07:15:00
1:35 AM,59.0,59.0,100,29.87,10.0,SSW,13.8,-,N/A,,Clear,200,2013-01-28 07:35:00
1:55 AM,58.5,58.5,100,29.87,10.0,SSW,13.8,-,N/A,,Clear,200,2013-01-28 07:55:00
2:15 AM,59.2,59.2,100,29.86,10.0,SSW,16.1,20.7,N/A,,Clear,200,2013-01-28 08:15:00
2:35 AM,60.4,60.8,100,29.87,10.0,SSW,12.7,18.4,N/A,,Scattered Clouds,200,2013-01-28 08:35:00
2:55 AM,60.8,61.0,100,29.86,10.0,SSW,16.1,-,N/A,,Mostly Cloudy,200,2013-01-28 08:55:00
3:15 AM,60.8,61.0,100,29.86,10.0,SSW,17.3,20.7,N/A,,Mostly Cloudy,210,2013-01-28 09:15:00
3:35 AM,61.7,61.9,100,29.86,10.0,SSW,17.3,25.3,N/A,,Mostly Cloudy,210,2013-01-28 09:35:00
3:55 AM,62.4,62.6,100,29.85,10.0,SSW,19.6,23.0,N/A,,Mostly Cloudy,210,2013-01-28 09:55:00
4:15 AM,63.1,63.1,100,29.85,10.0,SSW,15.0,20.7,N/A,,Mostly Cloudy,210,2013-01-28 10:15:00
4:35 AM,63.3,63.3,100,29.85,10.0,SW,18.4,26.5,N/A,,Mostly Cloudy,220,2013-01-28 10:35:00
4:55 AM,63.7,63.5,99,29.86,10.0,SW,16.1,24.2,N/A,,Overcast,230,2013-01-28 10:55:00
5:15 AM,63.9,63.9,100,29.86,10.0,SW,16.1,25.3,N/A,,Overcast,220,2013-01-28 11:15:00
5:35 AM,63.9,64.0,100,29.86,10.0,SW,18.4,-,N/A,,Overcast,220,2013-01-28 11:35:00
5:55 AM,64.0,64.2,100,29.86,10.0,SW,19.6,25.3,N/A,,Overcast,220,2013-01-28 11:55:00
6:15 AM,64.8,64.8,100,29.86,10.0,SSW,17.3,25.3,N/A,,Overcast,210,2013-01-28 12:15:00
6:35 AM,65.7,65.3,99,29.87,10.0,SSW,15.0,24.2,N/A,,Overcast,210,2013-01-28 12:35:00
6:55 AM,65.8,65.1,98,29.87,10.0,SW,19.6,29.9,N/A,,Overcast,220,2013-01-28 12:55:00
7:15 AM,65.8,64.9,97,29.88,10.0,SSW,19.6,26.5,N/A,,Overcast,210,2013-01-28 13:15:00
7:35 AM,65.8,65.3,98,29.88,10.0,SSW,17.3,25.3,N/A,,Overcast,210,2013-01-28 13:35:00
7:55 AM,64.9,64.8,99,29.88,10.0,SSW,18.4,26.5,N/A,,Mostly Cloudy,210,2013-01-28 13:55:00
8:15 AM,63.9,64.0,100,29.88,10.0,SSW,18.4,24.2,N/A,,Mostly Cloudy,210,2013-01-28 14:15:00
8:35 AM,64.8,64.8,100,29.88,10.0,SSW,17.3,-,N/A,,Scattered Clouds,210,2013-01-28 14:35:00
9:15 AM,67.8,65.7,93,29.89,10.0,SSW,21.9,26.5,N/A,,Scattered Clouds,210,2013-01-28 15:15:00
9:35 AM,68.4,65.3,90,29.89,10.0,SSW,21.9,26.5,N/A,,Mostly Cloudy,210,2013-01-28 15:35:00
9:55 AM,68.4,64.4,87,29.89,10.0,SW,20.7,29.9,N/A,,Mostly Cloudy,220,2013-01-28 15:55:00
10:15 AM,69.8,65.1,85,29.90,10.0,SW,20.7,29.9,N/A,,Mostly Cloudy,220,2013-01-28 16:15:00
10:35 AM,70.9,64.9,81,29.90,10.0,SW,23.0,34.5,N/A,,Overcast,220,2013-01-28 16:35:00
10:55 AM,-9999,-9999,N/A,-9999,-9999.0,North,-9999.0,-,N/A,,Overcast,0,2013-01-28 16:55:00
11:15 AM,-9999,-9999,N/A,-9999,-9999.0,North,-9999.0,-,N/A,,Unknown,0,2013-01-28 17:15:00
11:35 AM,-9999,-9999,N/A,-9999,-9999.0,North,-9999.0,-,N/A,,Unknown,0,2013-01-28 17:35:00
11:55 AM,-9999,-9999,N/A,-9999,-9999.0,North,-9999.0,-,N/A,,Unknown,0,2013-01-28 17:55:00
12:35 PM,-9999,-9999,N/A,-9999,-9999.0,North,-9999.0,-,N/A,,Unknown,0,2013-01-28 18:35:00
12:55 PM,-9999,-9999,N/A,-9999,-9999.0,North,-9999.0,-,N/A,,Unknown,0,2013-01-28 18:55:00
1:15 PM,-9999,-9999,N/A,-9999,-9999.0,North,-9999.0,-,N/A,,Unknown,0,2013-01-28 19:15:00
1:35 PM,-9999,-9999,N/A,-9999,-9999.0,North,-9999.0,-,N/A,,Unknown,0,2013-01-28 19:35:00
1:55 PM,-9999,-9999,N/A,-9999,-9999.0,North,-9999.0,-,N/A,,Unknown,0,2013-01-28 19:55:00
2:15 PM,-9999,-9999,N/A,-9999,-9999.0,North,-9999.0,-,N/A,,Unknown,0,2013-01-28 20:15:00
2:35 PM,-9999,-9999,N/A,-9999,-9999.0,North,-9999.0,-,N/A,,Unknown,0,2013-01-28 20:35:00
2:55 PM,-9999,-9999,N/A,-9999,-9999.0,North,-9999.0,-,N/A,,Unknown,0,2013-01-28 20:55:00
3:15 PM,-9999,-9999,N/A,-9999,-9999.0,North,-9999.0,-,N/A,,Unknown,0,2013-01-28 21:15:00
3:35 PM,75.9,60.3,58,29.80,10.0,SSW,21.9,33.4,N/A,,Unknown,210,2013-01-28 21:35:00
3:55 PM,75.2,59.2,57,29.80,10.0,SSW,24.2,32.2,N/A,,Scattered Clouds,200,2013-01-28 21:55:00
4:15 PM,73.4,58.1,59,29.79,10.0,SSW,21.9,27.6,N/A,,Scattered Clouds,200,2013-01-28 22:15:00
4:35 PM,72.3,58.1,61,29.79,10.0,SSW,16.1,24.2,N/A,,Scattered Clouds,200,2013-01-28 22:35:00
4:55 PM,70.9,57.9,63,29.79,10.0,South,17.3,29.9,N/A,,Scattered Clouds,190,2013-01-28 22:55:00
5:15 PM,70.9,58.1,64,29.78,10.0,South,15.0,27.6,N/A,,Overcast,190,2013-01-28 23:15:00
5:35 PM,70.9,58.5,65,29.78,10.0,South,18.4,28.8,N/A,,Overcast,190,2013-01-28 23:35:00
5:55 PM,70.9,59.2,66,29.78,10.0,South,15.0,24.2,N/A,,Overcast,190,2013-01-28 23:55:00
6:15 PM,70.9,59.4,67,29.78,10.0,South,19.6,25.3,N/A,,Overcast,180,2013-01-29 00:15:00
6:35 PM,70.9,59.9,68,29.78,10.0,South,18.4,24.2,N/A,,Mostly Cloudy,190,2013-01-29 00:35:00
6:55 PM,70.9,60.6,70,29.77,10.0,South,20.7,24.2,N/A,,Mostly Cloudy,190,2013-01-29 00:55:00
7:15 PM,70.9,61.0,71,29.77,10.0,South,17.3,26.5,N/A,,Scattered Clouds,190,2013-01-29 01:15:00
7:35 PM,70.9,61.2,71,29.77,10.0,South,18.4,27.6,N/A,,Scattered Clouds,180,2013-01-29 01:35:00
7:55 PM,70.9,61.5,72,29.76,10.0,South,17.3,24.2,N/A,,Scattered Clouds,190,2013-01-29 01:55:00
8:15 PM,70.9,61.9,73,29.75,10.0,South,18.4,31.1,N/A,,Clear,190,2013-01-29 02:15:00
8:35 PM,70.9,62.4,75,29.76,10.0,South,18.4,25.3,N/A,,Clear,190,2013-01-29 02:35:00
8:55 PM,69.4,61.7,76,29.75,10.0,South,17.3,24.2,N/A,,Clear,190,2013-01-29 02:55:00
9:15 PM,68.4,61.0,77,29.76,10.0,SSW,16.1,23.0,N/A,,Clear,200,2013-01-29 03:15:00
9:35 PM,68.4,61.3,78,29.76,10.0,SSW,15.0,23.0,N/A,,Clear,200,2013-01-29 03:35:00
9:55 PM,68.4,61.7,79,29.75,10.0,SSW,13.8,21.9,N/A,,Scattered Clouds,200,2013-01-29 03:55:00
10:15 PM,68.4,61.5,79,29.75,10.0,SSW,17.3,23.0,N/A,,Scattered Clouds,200,2013-01-29 04:15:00
10:35 PM,68.9,61.9,78,29.75,10.0,SSW,19.6,26.5,N/A,,Scattered Clouds,200,2013-01-29 04:35:00
10:55 PM,70.9,63.5,77,29.75,10.0,SSW,20.7,25.3,N/A,,Scattered Clouds,200,2013-01-29 04:55:00
11:15 PM,70.7,63.3,77,29.75,10.0,South,16.1,25.3,N/A,,Scattered Clouds,190,2013-01-29 05:15:00
11:35 PM,70.9,63.7,78,29.74,10.0,SSW,15.0,26.5,N/A,,Mostly Cloudy,200,2013-01-29 05:35:00
11:55 PM,70.9,63.5,77,29.74,10.0,SSW,18.4,25.3,N/A,,Overcast,200,2013-01-29 05:55:00